Location: Alafon
(8.4500°N, 4.2333°E)
Time: 21:13:45
(UTC+00:00)

Hubble Space Telescope - Visible Passes

Search period start: 12 June 2021 00:00
Search period end: 22 June 2021 00:00
Orbit: 535 x 539 km, 28.5° (Epoch: 12 June)

Date Brightness Start Highest point End Pass type
(mag) Time Alt. Az. Time Alt. Az. Time Alt. Az.
16 Jun 3.4 19:05:19 10° N 19:05:56 10° NNE 19:06:35 10° NNE visible
16 Jun 3.9 20:43:38 10° NW 20:44:02 12° NW 20:44:02 12° NW visible
17 Jun 3.2 18:53:13 10° N 18:55:08 13° NNE 18:57:04 10° NE visible
17 Jun 3.5 20:32:33 10° NW 20:33:36 17° NW 20:33:36 17° NW visible
18 Jun 3.0 18:41:42 10° NNW 18:44:18 16° NNE 18:46:55 10° ENE visible
18 Jun 3.0 20:21:32 10° WNW 20:23:11 23° NW 20:23:11 23° NW visible
19 Jun 2.6 18:30:20 10° NNW 18:33:27 21° NNE 18:36:34 10° ENE visible
19 Jun 2.5 20:10:36 10° WNW 20:12:49 31° WNW 20:12:49 31° WNW visible
20 Jun 2.1 19:59:45 10° WNW 20:02:30 36° W 20:02:30 36° W visible
21 Jun 1.9 19:49:00 10° W 19:52:12 34° SW 19:52:12 34° SW visible
